Location: Azat
(46.0765°N, 1.7600°E)
Time: 22:04:58
(UTC+00:00)

Cosmos 1461 - Pass Details

Date: 09 April 2020
Orbit: 507 x 659 km, 65.0° (Epoch: 26 May)

Event Time Altitude Azimuth Distance (km) Brightness Sun altitude
Rises 18:55:56 0° 327° (NNW) 2,879 7.4 -4.7°
Reaches altitude 10° 18:58:14 10° 332° (NNW) 1,994 6.4 -5.1°
Maximum altitude 19:02:39 51° 49° (NE) 803 3.5 -5.8°
Drops below altitude 10° 19:07:12 10° 126° (SE) 2,051 5.1 -6.6°
Enters shadow 19:07:55 - 128° (SE) 2,324 5.4 -6.7°
